Location: Greenwich
(51.4790°N, 0.0090°E)
Time: 06:16:33
(UTC+01:00)

Tiros 1 - Pass Details

Date: 01 May 2024
Orbit: 624 x 657 km, 48.4° (Epoch: 25 May)

Event Time Altitude Azimuth Distance (km) Brightness Sun altitude
Rises 23:05:49 0° 259° (WSW) 2,953 10.8 -18.8°
Reaches altitude 10° 23:08:11 10° 255° (WSW) 2,038 9.9 -19.0°
Maximum altitude 23:12:48 60° 176° (S) 734 7.1 -19.3°
Enters shadow 23:14:21 38° 116° (ESE) 974 7.6 -19.4°
